Wetbulb
66.20 66.61 66.93 66.65 66.24 66.45 66.51 67.07 67.11 66.91 66.80 66.67 66.25 66.10 65.32 64.72 64.50 64.37 64.08 63.71 63.24 63.14 63.24 62.94 62.53 61.88 61.61 61.12 62.12 62.96 65.59 65.43
66.07 66.41 66.09 66.13 66.32 65.29 65.79 66.14 66.44 66.19 65.85 64.87 64.70 64.75 63.75 63.34 61.69 62.79 62.97 62.66 62.36 62.04 61.33 61.20 60.42 60.29 60.31 59.75 59.55 60.64 63.29 63.80
66.35 66.14 65.48 65.19 65.44 65.49 65.35 66.00 66.26 65.97 65.66 64.42 64.31 65.69 64.36 62.50 61.89 61.82 62.08 61.53 61.02 60.77 60.30 59.48 58.00 57.66 58.40 58.24 58.13 61.04 61.15 61.84
66.08 66.43 66.03 64.90 63.63 65.42 65.88 65.77 67.18 67.88 67.30 66.39 66.08 64.93 63.90 62.63 61.94 61.20 61.26 60.66 59.95 59.72 59.17 57.47 57.02 59.31 60.53 58.90 61.11 61.30 62.04 61.89
66.09 66.62 66.87 65.83 64.84 65.72 65.78 65.76 66.19 66.74 66.77 66.38 65.45 64.76 64.42 64.08 63.25 62.88 63.01 60.64 61.74 60.27 60.80 61.21 60.92 60.87 60.69 60.50 59.92 60.10 61.29 61.93
67.19 66.96 66.57 66.90 66.62 66.10 65.69 65.07 65.32 65.47 65.76 65.55 65.47 64.58 63.74 62.74 62.18 62.13 62.48 63.02 61.85 61.55 61.49 60.79 60.06 59.73 58.69 58.35 58.06 58.78 59.10 59.60
66.94 66.82 65.96 65.18 63.97 65.11 65.36 65.17 65.23 65.52 65.30 65.05 64.43 63.68 63.15 62.18 61.59 61.69 61.95 62.15 61.54 61.08 60.36 57.77 56.05 55.34 56.29 55.79 55.23 55.64 56.84 56.46
64.52 63.56 63.45 62.78 62.50 63.35 64.10 64.32 64.79 64.62 64.91 64.78 64.07 63.48 62.96 62.00 61.53 61.40 61.49 61.48 61.23 60.59 58.00 55.79 54.89 54.39 54.68 54.19 53.77 54.37 55.94 55.48
61.34 61.91 62.61 62.43 60.99 60.04 60.00 60.62 60.67 62.62 63.18 63.46 62.80 62.37 62.02 61.61 61.22 61.01 61.04 61.32 60.68 58.30 56.04 55.27 53.92 52.92 52.81 52.99 53.07 53.17 54.66 53.43
60.08 60.18 61.20 61.57 60.68 60.59 60.23 59.60 58.95 58.73 58.90 59.50 60.07 59.92 60.29 60.46 59.54 59.45 60.18 60.20 59.47 57.71 56.30 53.75 51.98 52.15 52.14 52.49 52.19 52.27 52.29 52.26
59.10 59.89 59.98 60.10 59.04 59.28 59.57 59.09 58.92 58.68 58.01 57.61 58.19 58.58 59.00 58.92 58.36 58.16 58.08 57.41 57.31 56.49 55.13 53.08 51.67 51.75 51.12 51.73 51.84 51.46 51.81 50.76
58.09 57.73 58.11 57.63 57.05 55.87 55.33 54.75 54.93 54.91 55.31 55.51 55.89 56.51 57.43 57.58 57.54 56.84 56.60 55.17 54.83 53.96 53.06 52.67 51.57 51.62 49.72 49.79 51.63 51.82 51.57 51.38
55.70 55.20 54.96 54.43 53.24 52.72 53.31 52.82 52.88 53.36 53.61 53.55 53.61 53.92 54.60 55.43 55.60 55.99 55.83 54.22 54.38 54.16 52.92 51.44 50.70 51.11 49.66 49.88 50.12 51.12 50.87 50.69
51.00 50.46 50.82 50.72 51.40 51.81 51.81 51.43 52.14 51.80 52.29 53.23 53.55 52.98 53.01 52.88 53.86 53.96 54.42 53.70 54.26 54.13 52.34 51.52 50.57 51.27 48.75 48.46 45.45 47.59 48.38 49.19
49.82 50.26 51.20 51.73 51.74 52.04 52.44 52.51 52.48 52.18 51.99 52.03 52.53 52.76 52.47 52.24 52.13 52.57 53.00 53.30 52.15 54.07 53.46 51.41 50.44 50.62 50.39 48.74 44.94 43.06 46.31 47.52
51.76 51.84 51.92 51.50 51.73 50.67 49.75 48.59 47.76 49.55 49.88 50.37 50.78 51.86 51.61 51.31 50.79 50.97 51.48 52.00 51.74 51.96 52.76 52.08 50.77 49.48 48.09 47.57 47.30 45.68 43.27 42.91
51.17 51.27 51.09 50.94 50.29 49.20 49.06 48.57 48.84 48.93 48.86 48.62 48.82 49.91 50.41 49.57 49.08 49.11 49.29 49.91 50.64 50.48 50.51 49.07 49.36 48.42 46.72 45.93 44.38 43.73 43.99 40.69
51.20 50.92 50.70 50.94 50.40 48.72 48.33 47.77 47.58 47.55 48.02 47.60 48.20 48.62 48.13 47.02 46.54 47.19 46.42 46.35 45.82 45.83 45.38 45.52 45.11 45.10 43.94 43.92 43.22 41.07 39.87 39.44
50.25 50.08 49.68 50.02 49.78 47.68 47.32 47.87 48.02 47.17 46.65 46.53 46.35 46.29 45.90 45.30 45.12 45.73 45.39 45.66 45.64 45.50 44.96 44.18 43.52 42.12 40.89 40.18 40.36 38.93 38.84 37.28
49.65 49.35 49.31 49.63 49.70 47.64 47.24 47.75 46.79 45.74 46.14 45.92 45.57 44.06 44.12 44.89 45.30 45.65 45.72 45.57 45.33 45.41 44.50 41.23 39.93 39.44 37.89 37.18 36.18 37.04 37.65 37.98
MSLP
1019.90 1019.83 1019.82 1019.96 1020.03 1020.05 1020.23 1020.34 1020.38 1020.30 1020.40 1020.50 1020.54 1020.69 1020.73 1020.75 1020.81 1020.86 1020.85 1020.82 1020.74 1020.63 1020.58 1020.52 1020.48 1020.45 1020.44 1020.47 1020.25 1020.14 1019.72 1019.62
1019.65 1019.88 1019.91 1019.97 1020.09 1020.28 1020.33 1020.35 1020.40 1020.49 1020.50 1020.55 1020.54 1020.61 1020.65 1020.84 1020.91 1020.86 1020.81 1020.77 1020.82 1020.76 1020.65 1020.59 1020.63 1020.71 1020.65 1020.58 1020.40 1020.17 1019.79 1019.71
1019.68 1019.73 1020.00 1020.17 1020.15 1020.22 1020.34 1020.44 1020.53 1020.58 1020.55 1020.55 1020.51 1020.49 1020.58 1020.66 1020.85 1020.84 1020.82 1020.83 1020.80 1020.83 1020.75 1020.68 1020.71 1020.73 1020.66 1020.49 1020.29 1019.96 1019.79 1019.63
1019.48 1019.66 1019.94 1020.13 1020.10 1020.23 1020.28 1020.44 1020.42 1020.54 1020.60 1020.70 1020.78 1020.82 1020.81 1020.82 1020.88 1020.98 1021.01 1021.01 1021.03 1021.05 1020.93 1020.88 1020.69 1020.46 1020.33 1020.32 1020.01 1020.07 1019.84 1019.72
1019.47 1019.52 1019.76 1019.95 1020.04 1020.14 1020.22 1020.31 1020.40 1020.46 1020.55 1020.63 1020.70 1020.71 1020.69 1020.72 1020.79 1020.83 1020.92 1021.04 1020.91 1020.89 1020.75 1020.70 1020.69 1020.59 1020.41 1020.35 1020.19 1020.03 1019.77 1019.60
1019.16 1019.43 1019.82 1019.97 1020.01 1020.07 1020.20 1020.25 1020.36 1020.36 1020.36 1020.49 1020.56 1020.62 1020.71 1020.76 1020.72 1020.72 1020.74 1020.73 1020.77 1020.74 1020.64 1020.67 1020.57 1020.47 1020.40 1020.29 1020.14 1019.95 1019.72 1019.65
1019.00 1019.44 1019.78 1019.88 1020.03 1020.05 1020.17 1020.28 1020.23 1020.10 1020.15 1020.26 1020.40 1020.35 1020.32 1020.38 1020.42 1020.44 1020.36 1020.36 1020.38 1020.34 1020.35 1020.38 1020.41 1020.34 1020.33 1020.27 1020.13 1019.97 1019.84 1019.63
1019.09 1019.47 1019.78 1019.93 1019.95 1020.09 1020.07 1020.12 1020.01 1019.97 1019.95 1020.00 1020.24 1020.28 1020.25 1020.21 1020.16 1020.05 1020.01 1020.09 1020.09 1020.19 1020.18 1020.16 1020.18 1020.22 1020.06 1020.04 1019.94 1019.82 1019.73 1019.69
1018.89 1019.26 1019.62 1019.74 1019.88 1020.09 1020.11 1019.97 1020.06 1019.99 1019.94 1020.05 1020.08 1020.13 1020.07 1020.16 1020.04 1019.91 1019.77 1019.89 1020.07 1020.15 1020.18 1020.22 1020.12 1020.14 1019.98 1019.93 1019.83 1019.64 1019.44 1019.48
1018.82 1019.03 1019.27 1019.58 1019.91 1019.89 1019.85 1019.90 1020.06 1020.06 1020.06 1020.03 1019.97 1019.95 1019.96 1019.92 1019.80 1019.63 1019.58 1019.78 1019.81 1019.80 1019.77 1019.80 1019.77 1019.70 1019.60 1019.51 1019.49 1019.49 1019.36 1019.26
1018.54 1019.03 1019.35 1019.51 1019.72 1019.73 1019.81 1019.88 1019.84 1019.85 1019.91 1019.86 1019.86 1019.74 1019.63 1019.68 1019.44 1019.14 1019.32 1019.36 1019.45 1019.41 1019.35 1019.38 1019.06 1018.97 1018.98 1019.05 1019.05 1018.96 1018.99 1018.98
1018.69 1018.96 1019.20 1019.50 1019.64 1019.97 1019.97 1019.82 1019.77 1019.97 1019.81 1019.72 1019.74 1019.60 1019.51 1019.42 1019.01 1018.85 1018.94 1018.89 1018.77 1018.83 1018.84 1018.91 1018.74 1018.44 1018.37 1018.27 1018.35 1018.45 1018.54 1018.50
1018.56 1018.92 1019.51 1020.03 1020.10 1020.12 1019.98 1019.80 1019.78 1019.61 1019.51 1019.52 1019.50 1019.29 1019.16 1019.06 1018.68 1018.42 1018.44 1018.45 1018.14 1018.20 1018.30 1018.27 1018.06 1018.35 1018.47 1018.00 1017.86 1017.96 1018.03 1018.02
1019.70 1020.03 1020.32 1020.42 1020.54 1020.58 1020.50 1020.32 1019.88 1019.71 1019.45 1019.22 1019.02 1018.99 1018.66 1018.50 1018.23 1017.78 1017.50 1017.54 1017.55 1017.46 1017.69 1017.45 1017.44 1017.52 1017.16 1017.35 1016.97 1017.00 1017.41 1017.69
1020.24 1020.48 1020.56 1020.61 1020.65 1020.56 1020.45 1020.17 1019.89 1019.55 1019.26 1019.05 1018.77 1018.72 1018.47 1018.26 1017.96 1017.65 1017.37 1017.20 1016.87 1016.53 1016.51 1016.48 1016.17 1016.54 1016.80 1016.20 1016.14 1015.99 1016.35 1016.85
1020.70 1020.86 1020.80 1020.89 1020.99 1020.88 1020.69 1020.58 1020.43 1020.17 1019.96 1019.57 1019.04 1018.49 1018.16 1017.81 1017.55 1017.24 1016.85 1016.74 1016.45 1016.20 1016.03 1015.97 1016.01 1015.59 1016.47 1016.73 1016.22 1016.35 1015.98 1015.97
1021.01 1021.03 1021.04 1021.18 1021.18 1021.04 1020.77 1020.57 1020.51 1020.34 1019.99 1019.43 1018.84 1018.31 1017.97 1017.60 1017.09 1016.72 1016.41 1016.13 1015.87 1015.78 1015.73 1015.84 1015.67 1015.34 1015.63 1015.87 1016.10 1016.44 1016.77 1016.53
1020.95 1020.89 1020.88 1020.82 1020.73 1020.80 1020.86 1020.77 1020.45 1020.08 1019.60 1019.09 1018.57 1018.09 1017.72 1017.59 1017.17 1016.79 1016.43 1016.21 1016.25 1016.34 1016.34 1016.39 1016.56 1016.27 1016.30 1016.20 1015.89 1015.90 1016.40 1017.00
1021.15 1020.92 1020.77 1020.86 1020.96 1021.00 1021.02 1020.87 1020.55 1020.12 1019.65 1019.20 1018.76 1018.02 1017.80 1017.70 1017.53 1017.21 1016.87 1016.55 1016.59 1016.94 1017.22 1017.56 1017.71 1017.97 1017.89 1017.71 1017.99 1018.02 1017.84 1018.20
1021.22 1020.99 1020.85 1020.76 1020.71 1020.76 1020.89 1020.90 1020.65 1020.40 1019.93 1019.39 1018.65 1018.16 1017.85 1017.83 1017.60 1017.54 1017.45 1017.12 1017.11 1016.82 1017.44 1017.83 1018.10 1018.49 1018.47 1018.67 1018.81 1018.64 1018.67 1018.64
Wind_Speed
5 5 5 4 4 4 4 4 5 5 5 5 4 4 4 5 5 5 6 7 7 8 8 8 9 9 9 8 7 7 4 4
7 5 4 3 3 3 3 2 3 3 4 3 3 3 4 4 3 4 5 6 7 7 7 7 8 8 8 7 7 3 5 4
6 5 4 4 3 2 4 4 4 3 3 3 2 1 2 3 4 4 4 5 6 6 6 6 5 6 6 6 3 3 4 3
7 6 5 4 3 4 4 2 2 2 1 1 2 3 3 5 4 4 5 5 6 7 8 6 4 3 3 2 3 3 2 3
8 7 6 5 4 2 2 2 2 2 3 3 3 2 3 3 3 2 2 2 2 3 4 3 5 4 4 3 3 3 2 2
9 7 5 5 3 3 3 3 3 3 3 4 3 3 3 4 3 4 3 3 4 3 2 3 5 4 4 5 5 3 2 2
8 6 6 4 4 3 4 4 4 4 4 5 4 4 4 4 4 4 4 4 4 4 3 3 3 3 3 3 3 3 3 2
6 6 4 3 3 4 3 4 4 5 5 5 6 5 5 5 5 5 5 5 4 4 4 3 3 3 4 4 3 3 2 2
9 7 6 5 5 4 4 3 3 4 4 6 7 6 7 7 6 6 7 5 6 5 5 4 4 4 5 4 3 3 2 1
9 7 7 6 5 4 3 3 3 4 4 5 7 8 8 7 7 7 6 5 6 6 6 5 6 5 4 4 4 3 3 3
10 7 8 6 5 4 4 4 4 4 5 6 8 9 9 8 8 8 7 6 7 7 7 7 7 7 6 5 5 4 4 3
7 7 6 4 3 2 3 3 3 4 5 6 9 8 10 9 9 11 8 8 8 8 10 8 8 8 7 7 6 6 5 5
8 5 2 3 3 3 2 3 4 4 4 7 9 9 10 10 10 11 10 11 13 11 10 12 9 7 5 8 8 8 8 7
7 7 6 4 2 2 2 3 3 5 6 8 8 9 9 8 10 11 12 11 14 14 14 10 8 9 8 7 7 7 7 7
7 6 6 6 6 3 3 2 3 3 9 9 11 12 11 10 11 11 12 11 12 14 14 17 13 9 13 9 6 9 4 5
10 10 10 9 7 6 6 5 6 6 8 9 11 12 12 12 11 11 11 10 13 13 12 13 13 13 6 8 5 4 8 9
8 7 8 7 6 6 5 6 5 6 8 12 13 12 12 12 10 10 10 8 11 12 12 11 11 12 10 6 6 4 2 6
5 6 7 7 7 8 8 8 9 10 13 12 12 11 10 9 9 5 4 4 4 5 6 6 5 4 3 2 2 5 4 3
7 8 9 10 8 7 8 10 12 15 15 12 16 11 11 7 3 4 6 9 10 9 9 9 9 7 8 5 5 4 3 1
8 10 11 12 11 10 10 11 9 10 12 12 11 11 7 3 5 5 5 6 6 6 5 5 7 6 7 5 3 1 1 2
Wind_Direction
179 183 165 150 127 103 115 125 110 99 90 79 80 84 76 59 51 41 50 60 54 47 52 59 68 62 50 33 30 32 16 17
185 177 155 125 145 166 173 170 144 125 111 96 75 64 57 49 20 28 39 47 36 30 33 43 54 53 51 47 34 11 9 0
189 169 173 173 170 193 212 208 188 174 165 144 161 302 338 346 14 11 32 27 38 34 31 30 39 62 58 57 9 17 349 357
202 189 190 184 194 200 198 229 234 229 230 242 280 318 327 330 340 357 10 12 9 10 16 24 7 0 2 356 9 9 1 344
201 202 207 211 211 211 221 235 235 233 234 230 230 256 280 289 298 297 306 335 315 318 321 327 329 331 331 330 330 313 339 351
209 207 214 228 242 233 234 241 245 248 247 240 246 259 264 273 280 277 266 265 277 279 290 305 306 305 314 323 333 343 17 43
212 199 215 216 232 246 234 236 237 254 250 240 241 249 253 258 256 256 258 258 257 248 248 272 279 296 303 305 310 327 359 34
189 195 209 202 228 240 235 235 242 239 241 244 236 250 261 268 271 267 261 249 244 245 245 247 254 256 259 260 283 299 315 359
182 181 198 212 229 229 231 235 247 255 251 243 241 243 254 261 268 268 268 261 254 242 238 245 248 235 251 242 250 260 246 235
181 184 187 204 229 236 239 239 250 265 269 268 255 253 254 257 256 258 263 253 248 244 240 244 243 235 242 240 244 252 246 266
181 181 202 208 227 246 257 265 256 271 278 274 273 263 254 254 259 260 253 250 241 238 239 234 239 236 239 239 233 233 232 238
180 191 200 219 247 288 275 270 287 275 272 274 280 275 270 259 260 260 256 250 244 230 236 228 242 242 240 244 242 234 225 219
186 188 21 355 3 340 328 344 330 303 295 293 281 275 273 266 265 268 258 250 248 241 240 237 227 226 240 245 253 244 232 216
38 36 27 18 343 325 305 307 303 301 316 311 308 298 294 276 266 268 263 259 252 245 235 237 242 209 221 245 258 220 225 216
27 32 41 46 26 1 333 295 299 322 342 333 331 321 312 304 290 279 277 267 259 250 242 235 239 218 222 228 233 245 229 187
78 70 50 40 28 26 24 3 344 339 327 317 316 318 318 316 305 292 282 275 265 262 258 251 243 247 219 236 253 290 239 245
55 52 45 37 36 33 25 14 348 332 326 323 320 312 310 309 302 296 286 277 274 271 263 249 249 242 227 185 197 186 193 256
44 31 31 23 21 20 16 1 345 338 339 333 327 319 317 309 307 320 354 27 28 36 50 54 53 89 66 57 185 200 188 213
6 2 4 10 7 0 355 349 348 342 335 324 314 312 313 312 323 87 88 92 87 78 71 58 43 37 35 40 34 31 76 109
2 5 353 357 358 357 353 349 339 325 314 312 304 307 297 184 127 109 106 111 103 105 96 91 66 39 38 24 358 326 228 273